Location: Cointrin
(46.2167°N, 6.1167°E)
Time: 06:13:02
(UTC+00:00)

Cosmos 2278 Rocket - Pass Details

Date: 08 February 2023
Orbit: 841 x 845 km, 71.0° (Epoch: 25 March)

Event Time Altitude Azimuth Distance (km) Brightness Sun altitude
Rises 20:27:19 0° 321° (NW) 3,413 6.1 -37.6°
Reaches altitude 10° 20:30:24 10° 305° (NW) 2,472 5.3 -38.1°
Maximum altitude 20:34:20 20° 260° (W) 1,871 4.4 -38.7°
Enters shadow 20:35:16 19° 247° (WSW) 1,907 4.4 -38.9°
